Tracking 17154 objects as of 1-August-2015
HD Live streaming from Space Station

SL-14 R/B

Track SL-14 R/B now!
10-day predictions
SL-14 R/B is classified as:


NORAD ID: 11267
Int'l Code: 1979-011B
Perigee: 597.6 km
Apogee: 621.2 km
Inclination: 82.5 °
Period: 96.7 minutes
Semi major axis: 6980 km
RCS: 4.4018 m2 (large)
Launch date: February 12, 1979
Source: Commonwealth of Independent States (former USSR) (CIS)

Note: This is a ROCKET BODY
Your satellite tracking list
Your tracking list is empty





NASA's NSSDC Master Catalog

Two Line Element Set (TLE):
1 11267U 79011B   15212.86551932  .00000216  00000-0  20479-4 0  9990
2 11267 082.5269 157.3323 0016893 357.4761 002.6368 14.88604581973352

Source of the keplerian elements: AFSPC

N2YO: 262